| time (UTC) | temp F | wind direction | speed MPH | gust MPH | rain 1hr in | rain 24hr in | rain mn in | humidity % | barometer mb |
| 20260503190051 | 48 | 218 | 6.0 | 19.0 | 0.08 | 0.08 | 0.08 | 78 | 1014.0 |
| 20260503184557 | 50 | 209 | 5.0 | 9.0 | 0.02 | 0.02 | 0.02 | 76 | 1014.2 |
| 20260503183107 | 51 | 293 | 10.0 | 26.0 | 0.00 | 0.00 | 0.00 | 72 | 1014.2 |
| 20260503181546 | 53 | 249 | 24.0 | 35.0 | 0.00 | 0.00 | 0.00 | 60 | 1013.7 |
| 20260503180047 | 57 | 217 | 12.0 | 18.0 | 0.00 | 0.00 | 0.00 | 52 | 1013.3 |
| 20260503174545 | 58 | 245 | 15.0 | 28.0 | 0.00 | 0.00 | 0.00 | 50 | 1013.4 |
| 20260503173110 | 59 | 206 | 10.0 | 25.0 | 0.00 | 0.00 | 0.00 | 49 | 1013.6 |
| 20260503171545 | 58 | 200 | 13.0 | 27.0 | 0.00 | 0.00 | 0.00 | 50 | 1013.8 |
| 20260503081524 | 43 | 217 | 7.0 | 10.0 | 0.00 | 0.00 | 0.00 | 64 | 1015.6 |
| 20260503071516 | 43 | 222 | 6.0 | 11.0 | 0.00 | 0.00 | 0.00 | 63 | 1015.8 |
| 20260503054504 | 43 | 203 | 6.0 | 9.0 | 0.00 | 0.00 | 0.00 | 61 | 1016.4 |
| 20260503053001 | 43 | 207 | 7.0 | 10.0 | 0.00 | 0.00 | 0.00 | 60 | 1016.6 |
| 20260503051606 | 43 | 208 | 6.0 | 9.0 | 0.00 | 0.00 | 0.00 | 61 | 1016.6 |
| 20260503050057 | 43 | 208 | 7.0 | 9.0 | 0.00 | 0.00 | 0.00 | 62 | 1016.7 |
| 20260503044600 | 43 | 205 | 7.0 | 9.0 | 0.00 | 0.00 | 0.00 | 63 | 1016.7 |
| 20260503043055 | 43 | 209 | 6.0 | 8.0 | 0.00 | 0.00 | 0.00 | 63 | 1016.7 |
| 20260503041605 | 43 | 208 | 5.0 | 8.0 | 0.00 | 0.00 | 0.00 | 63 | 1016.7 |
| 20260503040056 | 44 | 204 | 5.0 | 8.0 | 0.00 | 0.00 | 0.00 | 62 | 1016.7 |
| 20260503034604 | 44 | 208 | 6.0 | 7.0 | 0.00 | 0.00 | 0.00 | 62 | 1016.7 |
| 20260503033052 | 44 | 207 | 7.0 | 8.0 | 0.00 | 0.00 | 0.00 | 62 | 1016.7 |
| 20260503031547 | 44 | 205 | 6.0 | 8.0 | 0.00 | 0.00 | 0.00 | 61 | 1016.7 |
| 20260503030053 | 41 | 207 | 4.0 | 6.0 | 0.00 | 0.00 | 0.00 | 69 | 1016.8 |
| 20260503024548 | 42 | 221 | 2.0 | 4.0 | 0.00 | 0.00 | 0.00 | 68 | 1016.9 |
| 20260503023045 | 43 | 275 | 1.0 | 3.0 | 0.00 | 0.00 | 0.00 | 66 | 1016.9 |
| 20260503021546 | 43 | 285 | 1.0 | 2.0 | 0.00 | 0.00 | 0.00 | 61 | 1016.9 |
| 20260503020046 | 45 | 286 | 0.0 | 0.0 | 0.00 | 0.00 | 0.00 | 57 | 1016.8 |
| 20260503014548 | 46 | 286 | 1.0 | 2.0 | 0.00 | 0.00 | 0.00 | 51 | 1016.7 |
| 20260503013043 | 47 | 294 | 1.0 | 3.0 | 0.00 | 0.00 | 0.00 | 46 | 1016.5 |
| 20260503011544 | 48 | 294 | 0.0 | 2.0 | 0.00 | 0.00 | 0.00 | 41 | 1016.6 |
| 20260503010045 | 48 | 294 | 0.0 | 2.0 | 0.00 | 0.00 | 0.00 | 42 | 1016.5 |
| 20260503004543 | 49 | 330 | 0.0 | 3.0 | 0.00 | 0.00 | 0.00 | 41 | 1016.5 |
| 20260503003041 | 49 | 331 | 2.0 | 5.0 | 0.00 | 0.00 | 0.00 | 40 | 1016.5 |
| 20260503001540 | 50 | 333 | 5.0 | 8.0 | 0.00 | 0.00 | 0.00 | 42 | 1016.5 |
| 20260503000039 | 50 | 331 | 9.0 | 13.0 | 0.00 | 0.00 | 0.00 | 40 | 1016.4 |
| 20260502234539 | 50 | 348 | 7.0 | 10.0 | 0.00 | 0.00 | 0.00 | 39 | 1016.4 |
| 20260502233043 | 51 | 344 | 10.0 | 15.0 | 0.00 | 0.00 | 0.00 | 38 | 1016.4 |
| 20260502231537 | 51 | 355 | 8.0 | 15.0 | 0.00 | 0.00 | 0.00 | 39 | 1016.5 |
| 20260502230036 | 52 | 360 | 11.0 | 17.0 | 0.00 | 0.00 | 0.00 | 39 | 1016.5 |
| 20260502224535 | 51 | 346 | 11.0 | 19.0 | 0.00 | 0.00 | 0.00 | 35 | 1016.5 |
| 20260502223036 | 52 | 323 | 10.0 | 20.0 | 0.00 | 0.00 | 0.00 | 34 | 1016.5 |
| 20260502221534 | 52 | 316 | 12.0 | 17.0 | 0.00 | 0.00 | 0.00 | 36 | 1016.5 |
| 20260502220040 | 51 | 321 | 16.0 | 22.0 | 0.00 | 0.00 | 0.00 | 36 | 1016.6 |
| 20260502214533 | 51 | 350 | 12.0 | 20.0 | 0.00 | 0.00 | 0.00 | 36 | 1016.5 |
| 20260502213029 | 51 | 9 | 12.0 | 19.0 | 0.00 | 0.00 | 0.00 | 38 | 1016.5 |
| 20260502211542 | 51 | 355 | 18.0 | 22.0 | 0.00 | 0.00 | 0.00 | 38 | 1016.4 |
| 20260502210027 | 50 | 321 | 15.0 | 20.0 | 0.00 | 0.00 | 0.00 | 39 | 1016.5 |
| 20260502204526 | 51 | 329 | 13.0 | 21.0 | 0.00 | 0.00 | 0.00 | 38 | 1016.6 |
| 20260502203024 | 51 | 315 | 10.0 | 22.0 | 0.00 | 0.00 | 0.00 | 40 | 1016.7 |
| 20260502201521 | 50 | 327 | 15.0 | 20.0 | 0.00 | 0.00 | 0.00 | 40 | 1016.9 |
| 20260502200020 | 51 | 332 | 14.0 | 22.0 | 0.00 | 0.00 | 0.00 | 38 | 1017.0 |
| 20260502194517 | 50 | 346 | 9.0 | 16.0 | 0.00 | 0.00 | 0.00 | 39 | 1017.2 |
| 20260502193015 | 49 | 351 | 10.0 | 17.0 | 0.00 | 0.00 | 0.00 | 39 | 1017.3 |
| 20260502191520 | 49 | 355 | 12.0 | 20.0 | 0.00 | 0.00 | 0.00 | 41 | 1017.4 |